Вернуться в каталог

QIANFAN-95

АктивенСвязьPO
NORAD 66037·PAYLOAD·🇨🇳 China

Запущен Oct 17, 2025 с Taiyuan Satellite Launch Center

Loading…

Ближайшие Пролёты (ближайшие 24 часа)

TLE

СвежийSource: Space-Track

Эпоха: Sep 14, 2026, 09:22 UTC

1 66037U 25233E   26257.39068521  .00000064  00000-0  80525-4 0  9997
2 66037  89.0051  33.6435 0001713  92.4611 267.6737 13.51021678 45524

Отслеживайте QIANFAN-95 в реальном времени с AllMySat

Download on the App Store